Regional Weather Roundup
Issued by NWS

Home | Current Version | Previous Version | Text Only | Print | Product List | Glossary On
Versions: 1 2 3 4 5 6 7 8 9 10 11 12 13 14 15 16 17 18 19 20 21 22 23 24 25 26 27 28 29 30 31 32 33 34 35 36 37 38 39 40 41 42 43 44 45 46 47 48 49 50
000
ASUS45 KREV 201110
RWRNV
NEVADA REGIONAL WEATHER ROUNDUP
NATIONAL WEATHER SERVICE RENO NV
400 AM PDT WED AUG 20 2014

NOTE: "FAIR" INDICATES FEW OR NO CLOUDS BELOW 12,000 FEET WITH NO
SIGNIFICANT WEATHER AND/OR OBSTRUCTIONS TO VISIBILITY.

NVZ001-003-004-201200-
WESTERN NEVADA

CITY           SKY/WX    TMP DP  RH WIND       PRES   REMARKS
RENO           CLEAR     67  39  35 W5        29.97R
CARSON CITY    FAIR      63  41  45 W3        29.99F
MINDEN         FAIR      50  39  66 CALM      30.00
SLIDE MTN        N/A     50  36  57 N13         N/A
PYRAMID LAKE     N/A     73 N/A N/A W3          N/A
FALLON         CLEAR     65  39  38 SW8       29.89R
LOVELOCK       CLEAR     66  36  32 NE6       29.87R
HAWTHORNE      CLEAR     72  43  35 SE7       29.91S
$$

NVZ002-CAZ072-073-201200-
NORTHERN AND CENTRAL SIERRA

CITY           SKY/WX    TMP DP  RH WIND       PRES   REMARKS
S. LAKE TAHOE  CLEAR     47  38  71 S3        30.09R
TRUCKEE        CLEAR     41  34  75 CALM      30.08S
SQUAW VLY 8000   N/A     48  25  40 CALM        N/A
BLUE CANYON    CLEAR     62  34  35 NE3       30.05S
MAMMOTH LAKES  FAIR      52  36  54 W8        30.13R
BRIDGEPORT     FAIR      48  35  60 CALM      30.09F
$$

NVZ030-031-036-201200-
NORTHERN NEVADA

CITY           SKY/WX    TMP DP  RH WIND       PRES   REMARKS
ELKO           PTCLDY    61  44  53 E3        29.96R
WINNEMUCCA     CLEAR     56  40  55 CALM      29.90R
WENDOVER       MOCLDY    66  45  45 SE8       29.92R
$$

NVZ035-037-201200-
CENTRAL NEVADA

CITY           SKY/WX    TMP DP  RH WIND       PRES   REMARKS
ELY            CLOUDY    53  51  93 S9        30.08R
EUREKA           N/A     54  45  71 CALM      30.02S
$$

NVZ013-014-201200-
SOUTH CENTRAL NEVADA

CITY           SKY/WX    TMP DP  RH WIND       PRES   REMARKS
TONOPAH        MOCLDY    61  40  45 N8        30.03R
$$

NVZ017-020-022-201200-
SOUTHERN NEVADA

CITY           SKY/WX    TMP DP  RH WIND       PRES   REMARKS
LAS VEGAS      PTCLDY    78  55  44 S3        29.83R
N. LAS VEGAS   CLEAR     77  56  48 CALM      29.86R
NELLIS AFB     CLEAR     76  60  56 E9        29.85R
HENDERSON      CLEAR     73  53  49 S6        29.89R
MERCURY        PTCLDY    71  50  47 N7        29.90R
$$


USA.gov is the U.S. government's official web portal to all federal, state and local government web resources and services.